Temperature
15 14 15 15 15 14 15 15 15 14 14 14 14 14 14 14 13 13 13 13 14 14 14 13 13 13 13 13 13 13 13 12 12 12 13 13 13 13 12 12 12 11 11
14 14 14 14 14 14 14 14 14 14 14 14 14 14 14 14 13 13 13 13 13 13 13 13 13 13 13 12 12 12 12 12 12 12 12 12 12 12 12 12 12 11 11
14 14 14 14 14 14 14 14 14 14 14 14 14 14 13 13 13 13 13 13 13 13 13 13 12 12 12 12 12 12 12 12 11 11 11 11 11 11 11 11 11 11 11
14 14 14 14 14 14 14 14 14 13 13 13 13 13 13 13 13 13 13 13 13 12 12 12 12 12 12 12 12 12 11 11 11 11 11 11 11 11 11 11 11 11 10
14 14 14 14 14 14 14 13 13 13 13 13 13 13 13 13 13 13 13 13 13 12 12 12 12 12 11 11 11 11 11 11 11 11 10 10 10 10 10 10 10 10 10
14 14 14 14 13 13 13 13 13 13 13 13 13 13 13 13 13 13 13 13 12 12 12 11 11 11 11 11 11 11 11 11 11 10 10 10 10 10 10 10 10 10 10
14 14 14 14 14 13 13 13 13 13 13 13 12 12 13 13 13 13 13 12 12 12 11 11 11 10 10 10 10 10 10 10 10 10 10 10 10 10 9 9 9 9 9
14 14 14 14 13 13 13 13 13 12 12 12 12 11 11 12 12 13 12 12 12 11 11 11 10 10 10 10 10 10 10 10 10 10 10 10 10 9 9 9 9 9 9
14 14 14 14 13 13 13 13 13 12 12 12 11 11 10 11 11 12 12 11 11 11 10 10 10 10 9 9 9 9 9 9 9 9 9 9 9 9 9 9 9 9 9
14 14 14 13 13 13 13 13 12 12 11 11 11 10 10 10 10 10 10 10 10 10 10 10 9 9 9 8 8 8 8 8 8 9 9 9 9 9 9 9 9 9 8
14 14 13 13 13 12 12 12 12 11 11 10 10 10 10 10 9 9 9 10 10 9 9 9 9 8 8 8 8 7 7 8 8 8 8 8 8 8 8 8 8 8 8
13 13 13 12 12 12 11 11 11 11 10 10 9 9 9 9 9 9 9 9 9 9 9 8 8 8 7 7 7 7 7 7 7 7 7 7 8 8 8 8 8 8 8
12 12 12 12 11 11 11 10 10 10 10 9 9 9 8 8 8 8 8 8 8 8 8 7 7 7 7 7 6 6 6 6 6 6 7 7 7 7 7 7 7 7 7
11 11 11 11 10 10 10 10 9 9 9 8 8 8 8 8 7 7 7 7 7 7 7 7 6 6 6 6 6 5 5 5 5 6 6 6 6 6 6 6 7 7 7
11 10 10 10 9 9 9 9 8 8 8 8 7 7 7 7 7 6 6 6 6 5 6 6 5 5 5 5 5 5 5 5 5 5 5 5 5 5 5 5 6 6 6
10 9 9 9 9 8 8 8 8 7 7 7 7 6 6 6 6 6 5 5 5 5 5 5 4 4 4 4 4 4 4 4 4 4 4 4 4 4 4 4 4 5 5
9 9 8 8 8 7 7 7 7 6 6 6 6 5 5 5 5 5 5 5 4 4 4 4 4 3 4 4 4 3 3 3 3 3 3 3 3 3 3 4 4 4 4
8 8 7 7 7 7 6 6 6 6 5 5 5 5 4 4 4 4 4 4 4 4 3 3 3 3 3 3 3 3 3 2 2 2 2 2 3 3 3 3 3 3 3
7 7 7 6 6 6 5 5 5 4 4 4 4 4 4 4 4 4 4 4 4 4 3 3 2 2 2 2 2 2 2 2 2 2 2 2 2 2 2 2 2 2 2
7 6 6 5 5 5 5 4 4 4 4 3 3 3 3 3 3 3 3 3 3 3 3 2 2 2 1 1 1 1 1 1 1 1 1 1 1 1 1 1 1 2 2
6 5 5 4 4 4 4 3 3 3 3 3 3 3 3 3 3 3 3 3 3 2 2 2 1 1 0 1 1 1 0 0 0 0 0 0 0 0 0 1 1 1 1
5 4 4 3 3 3 3 3 3 3 2 2 2 2 2 2 2 2 2 2 2 2 2 1 1 0 -0 -0 -0 -0 -0 -0 -1 -1 -0 -1 -1 -1 -0 -0 -0 -0 -0
4 3 3 3 3 2 2 2 2 2 2 2 2 2 2 2 2 2 2 2 2 1 1 0 0 -0 -0 -1 -1 -1 -1 -1 -1 -1 -1 -1 -1 -1 -1 -1 -1 -1 -1
3 3 2 2 2 2 2 2 2 2 2 2 2 2 2 2 2 1 1 1 1 1 0 -0 -0 -1 -1 -1 -1 -2 -2 -2 -2 -2 -2 -2 -2 -2 -2 -2 -2 -2 -2
3 2 2 2 2 2 2 2 2 2 2 2 2 1 1 2 1 1 1 1 1 1 0 -0 -1 -1 -1 -2 -2 -2 -2 -2 -2 -3 -3 -3 -3 -3 -2 -2 -2 -3 -3
2 2 1 1 1 1 1 1 1 2 2 2 2 1 1 1 1 1 1 1 1 0 -0 -1 -1 -1 -2 -2 -2 -2 -3 -3 -3 -4 -4 -4 -4 -4 -3 -3 -3 -3 -3
Wind_Speed
3 3 3 5 5 5 5 5 6 5 4 5 5 5 6 8 9 8 8 12 12 11 11 11 11 11 10 10 9 8 7 5 4 3 2 1 1 0 1 2 3 4 5
2 2 1 2 2 2 3 3 5 4 3 3 4 5 7 8 8 8 8 11 14 14 14 13 13 13 13 12 12 11 10 9 8 7 6 4 3 3 2 1 2 2 3
3 2 2 1 3 4 5 4 5 3 2 3 4 6 7 8 8 8 9 9 11 15 16 15 15 14 14 14 13 13 12 12 12 10 9 8 7 6 5 4 3 3 3
6 4 2 2 4 4 3 2 2 3 3 4 4 4 4 5 7 9 10 10 9 10 12 15 15 14 13 14 14 14 13 13 14 14 13 12 10 9 8 7 6 5 5
4 3 3 3 4 3 2 2 2 3 3 4 4 4 4 4 5 7 7 9 9 7 6 7 11 13 13 12 12 13 13 12 13 14 15 15 14 13 12 11 10 9 8
2 2 2 3 3 1 2 3 3 3 3 4 4 5 5 6 5 6 6 6 6 4 3 2 4 7 9 10 10 10 10 10 10 12 14 16 16 16 15 14 13 12 11
1 0 1 2 2 2 3 3 3 4 3 2 2 4 6 8 9 7 3 1 1 1 1 1 1 1 2 2 4 6 7 9 9 9 10 13 16 17 18 18 17 16 15
2 1 1 1 2 2 3 4 3 2 3 2 2 3 4 5 4 3 2 2 1 2 2 4 5 6 7 7 8 9 8 9 9 9 9 10 12 16 18 19 19 19 18
4 4 3 3 2 1 2 3 3 3 3 3 3 3 3 3 4 3 1 1 2 2 2 4 7 9 10 10 11 12 12 11 10 10 10 10 10 11 14 18 19 20 20
5 5 5 4 3 2 2 3 3 3 3 3 3 4 4 3 2 3 3 1 1 2 3 4 7 9 10 10 12 13 13 12 11 10 10 10 10 11 11 13 15 17 19
6 5 5 5 4 3 3 4 4 4 3 3 3 3 3 3 4 4 4 3 1 2 3 4 6 9 11 11 12 13 12 12 11 11 10 10 9 9 8 8 8 10 13
4 5 5 4 4 3 3 4 4 4 3 4 3 2 2 2 2 2 3 2 1 1 3 5 6 8 11 11 12 13 13 12 11 10 10 9 9 9 8 7 7 6 7
3 4 4 3 3 4 4 4 3 3 3 3 3 2 2 2 2 2 2 2 1 0 2 4 6 9 10 11 12 12 13 14 13 12 11 11 11 10 9 8 7 6 6
4 4 3 3 3 4 4 3 2 2 2 3 3 3 2 3 3 2 1 1 1 1 1 3 4 8 9 10 11 11 11 13 14 13 12 12 12 12 11 10 9 7 5
4 4 3 2 3 3 3 3 2 2 2 3 3 3 3 3 3 3 3 2 1 2 1 3 3 5 7 8 10 10 10 12 13 13 13 13 14 13 13 11 10 10 8
4 3 2 3 3 3 3 2 2 2 3 3 2 3 3 3 3 3 3 3 2 0 0 2 3 3 5 6 8 8 8 10 12 12 12 12 13 13 13 13 12 10 9
4 3 3 3 3 3 2 2 2 2 3 3 3 4 4 4 3 3 3 3 3 2 0 2 2 2 3 4 5 6 7 8 9 11 11 11 11 12 12 13 13 12 10
4 3 3 3 3 3 3 2 3 3 4 4 4 4 4 4 5 4 4 4 3 3 1 1 2 2 3 3 3 3 5 6 7 9 10 10 10 10 10 11 11 12 11
4 3 3 3 3 2 3 3 3 4 5 5 5 5 5 5 5 4 4 4 3 3 2 2 1 1 1 2 2 3 3 4 5 7 9 9 9 9 8 9 9 9 9
3 3 3 4 3 3 3 3 4 5 6 6 6 6 6 5 5 4 4 4 4 3 3 2 2 1 1 1 2 2 3 3 3 5 8 7 7 7 7 7 8 8 8
3 3 4 4 3 3 3 3 3 5 5 5 5 6 6 6 7 5 4 4 4 3 3 2 2 1 1 2 2 2 3 3 2 4 4 5 5 4 4 5 6 7 6
4 3 4 4 3 3 4 4 5 5 5 5 4 3 3 4 5 6 6 6 6 4 3 2 1 1 1 2 2 3 3 3 3 4 4 4 3 2 3 3 4 5 5
4 4 4 4 5 5 6 5 6 5 4 3 3 2 2 3 3 2 3 5 5 6 5 2 2 2 2 2 2 2 2 2 2 3 3 3 3 3 4 4 4 4 5
5 4 4 4 5 5 6 6 6 5 4 3 2 2 2 1 2 2 2 3 2 2 3 3 3 2 2 2 1 1 1 2 4 2 1 1 3 3 4 7 3 2 4
4 4 4 4 5 5 7 7 6 3 3 3 3 2 2 1 1 1 1 1 1 0 2 1 1 1 2 2 3 2 2 3 2 2 2 1 3 4 4 3 2 3 5
5 5 5 5 5 5 8 8 7 3 3 3 3 3 3 2 2 1 0 0 1 0 0 1 2 3 3 2 1 1 1 1 1 2 2 2 3 4 4 3 4 6 7
Wind_Direction
182 177 195 181 211 204 184 213 248 260 250 256 257 255 266 266 256 245 222 209 215 223 235 247 252 253 250 246 245 242 239 238 240 239 244 253 269 46 77 75 88 86 83
172 134 227 179 233 236 247 239 254 259 265 269 278 282 273 273 271 265 246 223 222 228 233 241 248 252 254 251 248 242 235 233 233 233 233 233 233 228 216 180 123 112 108
168 174 251 209 233 239 244 250 278 294 296 294 283 276 272 270 277 279 274 253 229 229 234 239 246 252 256 259 256 251 240 233 231 230 230 230 230 228 225 217 199 178 155
191 193 214 236 248 246 243 242 264 281 274 266 266 272 275 276 268 269 273 272 253 234 232 237 243 251 257 261 263 260 253 241 232 229 229 228 227 226 225 224 218 210 199
188 191 213 244 253 248 245 250 249 256 273 277 278 282 285 283 275 274 269 270 268 253 234 235 240 246 254 262 268 270 268 258 244 235 231 229 227 225 224 225 222 218 213
198 214 235 261 276 257 257 259 257 255 258 273 291 290 282 275 268 261 256 266 279 270 249 262 253 252 255 261 272 281 285 282 268 253 241 233 229 227 225 224 222 221 219
128 150 321 305 308 281 274 276 273 273 269 270 295 294 277 260 254 246 230 216 309 13 60 13 304 323 324 291 297 309 315 311 303 285 267 250 238 232 229 226 224 222 221
59 58 17 327 325 313 305 299 296 280 272 240 228 283 302 305 290 253 174 144 92 52 62 59 49 46 45 52 48 26 3 344 329 314 297 278 258 244 237 233 228 225 223
60 47 27 4 350 340 304 306 309 289 277 270 228 229 258 278 331 336 6 92 80 59 48 58 60 54 50 53 46 32 19 2 344 327 310 295 279 264 251 243 236 231 226
70 48 28 10 358 348 328 318 322 308 289 278 277 245 235 242 262 300 322 358 43 57 50 58 62 56 53 58 47 29 18 5 350 335 322 311 297 279 267 256 245 239 231
90 65 37 17 8 4 354 346 336 325 304 281 277 281 275 266 239 237 267 288 350 37 53 59 62 58 56 56 41 25 18 7 355 344 335 330 322 308 288 281 266 251 238
109 86 51 23 16 18 5 354 340 334 331 316 303 295 283 275 269 250 253 261 269 342 56 56 59 58 55 51 36 26 23 15 4 354 352 358 2 360 343 314 295 272 252
105 84 60 31 27 19 7 355 338 336 342 334 332 332 342 344 340 319 284 282 291 265 99 69 55 56 53 48 29 26 25 22 18 16 19 20 20 16 7 352 331 308 279
92 79 59 39 38 23 9 358 347 350 357 353 359 7 10 19 16 10 350 327 293 275 152 105 63 52 46 46 29 29 25 26 28 29 33 35 32 29 24 24 20 7 341
84 73 61 54 51 35 12 3 16 13 31 32 25 32 40 35 29 19 12 13 242 248 235 92 79 42 37 45 33 32 27 28 32 36 39 41 40 36 33 34 34 32 27
87 76 66 63 57 40 20 30 32 36 68 58 46 59 53 40 37 29 22 23 28 333 227 84 78 52 36 34 32 32 26 31 32 36 41 40 38 37 35 36 36 34 33
98 84 73 66 58 37 28 52 59 61 83 74 62 73 66 55 51 34 31 38 39 33 81 92 83 56 45 25 16 22 30 35 31 36 39 38 35 35 37 38 39 39 40
101 89 81 78 71 48 35 58 71 67 81 82 72 75 70 67 56 40 40 43 37 29 57 94 74 55 47 17 6 13 24 30 31 32 33 34 34 36 36 36 35 36 36
110 108 104 100 93 76 60 63 79 80 78 75 71 73 69 71 62 47 44 38 23 28 51 86 81 65 51 23 8 6 17 17 21 27 23 24 27 30 32 33 34 34 33
123 119 107 104 101 93 85 81 92 93 87 76 68 65 62 62 58 46 47 29 25 31 47 75 78 59 42 11 29 6 357 355 360 26 13 8 13 21 26 32 33 28 24
121 118 119 115 110 107 100 97 102 106 104 94 80 76 73 73 67 59 58 38 35 41 50 60 60 48 31 32 18 5 4 342 0 25 2 345 350 2 16 32 30 17 7
137 133 131 130 130 118 119 120 110 101 104 105 98 91 97 77 72 67 64 59 58 64 61 53 52 63 37 43 30 20 18 13 339 350 5 324 338 353 356 29 11 2 354
154 155 152 148 131 131 141 131 123 115 115 118 122 118 104 101 77 50 53 57 55 61 59 65 71 53 58 35 42 16 13 353 282 292 359 320 334 344 344 355 357 357 346
160 163 155 145 140 151 152 147 139 126 134 148 149 141 129 112 101 69 55 50 47 67 60 58 79 64 66 51 46 314 277 311 297 301 54 316 324 329 329 330 321 349 344
163 162 155 156 156 165 170 167 160 157 168 179 173 152 133 128 132 78 60 19 356 298 140 109 53 351 335 338 351 23 14 17 339 333 17 18 330 330 321 318 331 343 333
166 162 167 177 179 184 191 188 188 187 189 188 180 180 183 181 198 221 70 287 284 283 66 282 293 284 269 271 323 104 126 118 301 305 359 31 4 360 332 314 331 334 328
Height
1567 1568 1568 1569 1569 1570 1570 1570 1570 1571 1571 1571 1570 1570 1570 1569 1569 1568 1567 1566 1565 1565 1564 1563 1562 1561 1561 1560 1559 1559 1558 1557 1557 1556 1556 1555 1554 1554 1554 1554 1554 1554 1554
1566 1566 1567 1568 1568 1568 1569 1569 1569 1569 1569 1569 1568 1568 1567 1567 1567 1566 1565 1564 1563 1562 1561 1561 1560 1559 1558 1557 1557 1556 1556 1555 1555 1555 1554 1554 1553 1553 1552 1552 1552 1552 1553
1564 1564 1565 1566 1566 1566 1567 1567 1567 1567 1567 1566 1566 1565 1564 1564 1563 1563 1562 1561 1560 1559 1558 1557 1557 1556 1555 1554 1554 1553 1553 1553 1553 1552 1552 1552 1551 1551 1551 1551 1551 1551 1551
1562 1562 1563 1564 1564 1565 1565 1565 1564 1564 1564 1563 1562 1562 1561 1561 1560 1559 1558 1558 1557 1555 1554 1554 1553 1553 1552 1551 1551 1550 1550 1549 1549 1549 1549 1550 1549 1549 1549 1549 1549 1549 1549
1560 1560 1561 1561 1562 1562 1562 1562 1562 1561 1560 1560 1559 1558 1557 1556 1555 1555 1554 1553 1553 1552 1551 1550 1549 1549 1548 1548 1547 1547 1546 1546 1546 1546 1546 1546 1547 1547 1547 1547 1547 1547 1547
1557 1558 1558 1559 1559 1559 1559 1559 1558 1558 1557 1556 1555 1553 1553 1552 1551 1550 1549 1549 1548 1548 1547 1546 1546 1545 1544 1543 1543 1543 1542 1542 1542 1542 1542 1542 1543 1543 1544 1544 1544 1545 1545
1554 1555 1555 1555 1556 1555 1555 1555 1555 1554 1553 1552 1551 1549 1547 1547 1546 1545 1545 1545 1545 1544 1544 1543 1542 1541 1540 1540 1539 1539 1538 1538 1538 1538 1538 1538 1538 1539 1539 1540 1541 1541 1542
1551 1551 1552 1552 1552 1551 1551 1551 1550 1549 1549 1549 1548 1546 1543 1542 1541 1541 1541 1541 1541 1541 1541 1540 1539 1538 1537 1536 1535 1535 1535 1534 1534 1534 1534 1534 1534 1534 1535 1536 1537 1537 1538
1547 1547 1548 1548 1547 1547 1547 1546 1546 1545 1544 1544 1544 1544 1542 1540 1539 1539 1539 1539 1538 1538 1537 1537 1536 1535 1534 1533 1532 1531 1531 1530 1530 1530 1529 1529 1529 1530 1530 1531 1532 1533 1534
1543 1543 1543 1543 1543 1542 1542 1541 1541 1540 1539 1539 1539 1539 1539 1538 1537 1535 1535 1535 1535 1535 1534 1533 1532 1531 1530 1529 1529 1528 1527 1526 1526 1525 1525 1525 1525 1525 1525 1526 1526 1527 1528
1538 1539 1539 1538 1538 1537 1537 1536 1535 1535 1534 1534 1534 1534 1533 1533 1533 1533 1531 1531 1532 1531 1530 1529 1529 1528 1526 1526 1525 1524 1523 1522 1521 1521 1520 1520 1520 1520 1520 1520 1521 1522 1523
1534 1534 1534 1533 1533 1532 1532 1531 1530 1530 1529 1529 1529 1529 1529 1529 1528 1528 1527 1527 1527 1527 1527 1526 1525 1524 1523 1522 1521 1520 1519 1518 1517 1517 1516 1516 1515 1515 1515 1515 1516 1517 1518
1529 1529 1529 1529 1528 1527 1527 1526 1525 1525 1524 1524 1524 1524 1524 1524 1524 1524 1523 1523 1523 1523 1522 1522 1521 1520 1520 1519 1517 1516 1515 1514 1514 1513 1512 1512 1511 1511 1511 1511 1511 1511 1512
1525 1525 1524 1524 1523 1522 1522 1521 1520 1519 1519 1519 1519 1518 1518 1518 1518 1519 1519 1519 1518 1519 1519 1518 1517 1517 1516 1515 1514 1513 1512 1511 1510 1510 1509 1508 1508 1507 1507 1507 1507 1507 1508
1521 1520 1520 1519 1518 1518 1517 1516 1516 1515 1514 1514 1514 1513 1513 1513 1513 1513 1514 1514 1515 1515 1515 1514 1514 1513 1513 1512 1511 1510 1509 1508 1507 1506 1506 1505 1505 1504 1504 1504 1503 1504 1504
1516 1516 1515 1515 1514 1513 1513 1512 1511 1510 1510 1510 1509 1509 1509 1509 1509 1509 1509 1509 1510 1511 1512 1511 1511 1510 1510 1509 1508 1507 1506 1505 1504 1504 1503 1503 1502 1502 1501 1501 1501 1501 1501
1512 1512 1511 1511 1510 1509 1509 1508 1507 1507 1506 1506 1505 1505 1505 1505 1505 1505 1505 1505 1506 1507 1507 1508 1507 1507 1506 1506 1505 1504 1503 1502 1502 1501 1501 1500 1500 1499 1499 1499 1498 1498 1499
1508 1507 1507 1506 1506 1505 1505 1504 1503 1503 1503 1503 1502 1502 1502 1502 1502 1502 1502 1502 1502 1503 1504 1504 1504 1503 1503 1502 1502 1501 1500 1500 1499 1499 1498 1498 1497 1497 1497 1496 1496 1496 1497
1503 1503 1503 1502 1502 1501 1501 1500 1500 1500 1500 1500 1499 1500 1500 1500 1499 1499 1499 1499 1500 1500 1500 1500 1500 1500 1500 1499 1499 1498 1498 1497 1497 1496 1495 1495 1495 1494 1494 1494 1494 1494 1494
1499 1499 1499 1498 1498 1498 1498 1497 1497 1497 1497 1497 1497 1497 1497 1498 1497 1497 1497 1497 1497 1497 1497 1497 1497 1497 1497 1496 1496 1495 1495 1494 1494 1493 1493 1492 1492 1492 1491 1491 1491 1491 1492
1496 1495 1495 1495 1495 1495 1495 1495 1495 1495 1495 1495 1495 1495 1496 1496 1496 1496 1496 1496 1495 1495 1495 1495 1495 1494 1494 1494 1493 1492 1492 1492 1491 1491 1490 1490 1489 1489 1489 1488 1488 1488 1488
1492 1492 1492 1492 1492 1492 1492 1492 1493 1493 1493 1494 1494 1494 1494 1494 1494 1494 1494 1494 1493 1493 1493 1493 1492 1492 1492 1491 1491 1490 1490 1489 1488 1489 1488 1488 1487 1486 1486 1485 1485 1485 1485
1489 1489 1489 1489 1489 1490 1490 1490 1491 1491 1492 1492 1492 1492 1492 1492 1492 1492 1492 1492 1492 1491 1491 1491 1490 1490 1490 1489 1489 1488 1487 1487 1486 1486 1485 1485 1484 1484 1483 1482 1482 1482 1481
1485 1486 1486 1486 1487 1488 1488 1488 1489 1490 1490 1490 1490 1490 1491 1491 1491 1491 1490 1490 1490 1490 1489 1489 1489 1488 1488 1487 1487 1486 1485 1485 1484 1484 1483 1483 1482 1481 1481 1480 1479 1479 1478
1482 1483 1483 1484 1485 1485 1486 1487 1487 1488 1488 1488 1489 1489 1489 1489 1489 1489 1489 1488 1488 1488 1488 1487 1487 1486 1486 1485 1484 1484 1483 1483 1482 1481 1481 1480 1479 1478 1478 1477 1476 1476 1476
1479 1479 1480 1481 1482 1483 1484 1484 1485 1485 1486 1486 1486 1487 1487 1487 1487 1487 1487 1486 1486 1486 1486 1485 1485 1484 1484 1483 1482 1482 1481 1480 1479 1479 1478 1478 1476 1476 1475 1474 1474 1474 1473